Spokane, WA

4:55 AM PDT on August 26, 2016 (GMT -0700)
Spokane International

Weather History for KGEG - August, 2012

Change the Weather History Date:

Sunday, August 5, 2012

  Actual Average Record
Temperature  
Mean Temperature 78 °F 72 °F  
Max Temperature 94 °F 86 °F 102 °F (1998)
Min Temperature 61 °F 58 °F 44 °F (1948)
Degree Days  
Heating Degree Days 0 0  
Month to date heating degree days 0 0  
Since 1 June heating degree days 195 168  
Since 1 July heating degree days 20 32  
Cooling Degree Days 13 7  
Month to date cooling degree days 36 35  
Year to date cooling degree days 317 278  
Since 1 June cooling degree days 307 264  
Growing Degree Days 27 (Base 50)    
Moisture  
Dew Point 49 °F    
Average Humidity 43    
Maximum Humidity 67    
Minimum Humidity 19    
Precipitation  
Precipitation 0.00 in 0.02 in 0.26 in (1933)
Month to date precipitation 0.00 0.08  
Year to date precipitation 13.83 9.60  
Snow  
Snow 0.00 in 0.00 in 0.00 in (2002)
Month to date snowfall 0.0 0.0  
Since 1 June snowfall 0.0 0.0  
Since 1 July snowfall 0.0 0.0  
Snow Depth 0.00 in    
Sea Level Pressure  
Sea Level Pressure 29.94 in    
Wind  
Wind Speed 4 mph (NNE)    
Max Wind Speed 12 mph    
Max Gust Speed 14 mph    
Visibility 10 miles    
Events      
T = Trace of Precipitation, MM = Missing Value Source: NWS Daily Summary

Daily Weather History Graph

Daily Weather History Graph

Search for Another Location

Airport or City:

Trip Planner

Search our weather history database for the weather conditions in past years. The results will help you decide how hot, cold, wet, or windy it might be!

Date:

Astronomy

Aug. 05, 2012 Rise Set
Actual Time 5:33 AM PDT 8:17 PM PDT
Civil Twilight 4:58 AM PDT 8:52 PM PDT
Nautical Twilight 4:13 AM PDT 9:37 PM PDT
Astronomical Twilight 3:19 AM PDT 10:30 PM PDT
Moon 9:34 PM PDT (8/5) 9:49 AM PDT (8/5)
Length of Visible Light 15h 54m
Length of Day
14h 44m
Waning Gibbous, 85% of the Moon is Illuminated
Aug 5
Waning Gibbous
Aug 9
Last Quarter
Aug 17
New
Aug 24
First Quarter
Aug 31
Full

Hourly Weather History & Observations

Time (PDT) Temp. Heat Index Dew Point Humidity Pressure Visibility Wind Dir Wind Speed Gust Speed Precip Events Conditions
12:53 AM 66.0 °F - 48.0 °F 52% 29.94 in 10.0 mi Calm Calm - N/A   Clear
1:53 AM 64.9 °F - 48.0 °F 54% 29.94 in 10.0 mi Calm Calm - N/A   Clear
2:53 AM 63.0 °F - 48.0 °F 58% 29.95 in 10.0 mi Calm Calm - N/A   Clear
3:53 AM 63.0 °F - 48.9 °F 60% 29.96 in 10.0 mi Calm Calm - N/A   Clear
4:53 AM 63.0 °F - 51.1 °F 65% 29.95 in 10.0 mi NE 4.6 mph - N/A   Clear
5:53 AM 63.0 °F - 52.0 °F 67% 29.96 in 10.0 mi NE 4.6 mph - N/A   Clear
6:53 AM 64.9 °F - 53.1 °F 65% 29.96 in 10.0 mi NE 5.8 mph - N/A   Clear
7:53 AM 68.0 °F - 53.1 °F 59% 29.98 in 10.0 mi NE 10.4 mph - N/A   Clear
8:53 AM 71.1 °F - 54.0 °F 55% 29.98 in 10.0 mi NE 9.2 mph - N/A   Clear
9:53 AM 75.9 °F - 53.1 °F 45% 29.98 in 10.0 mi NE 6.9 mph - N/A   Partly Cloudy
10:53 AM 81.0 °F 80.4 °F 53.1 °F 38% 29.97 in 10.0 mi NE 5.8 mph - N/A   Partly Cloudy
11:53 AM 84.9 °F 83.2 °F 53.1 °F 33% 29.97 in 10.0 mi Variable 3.5 mph - N/A   Partly Cloudy
12:53 PM 88.0 °F - 48.0 °F 25% 29.96 in 10.0 mi ENE 3.5 mph - N/A   Scattered Clouds
1:53 PM 91.0 °F - 46.9 °F 22% 29.94 in 10.0 mi ENE 5.8 mph - N/A   Partly Cloudy
2:53 PM 91.9 °F - 46.9 °F 21% 29.93 in 10.0 mi Calm Calm - N/A   Scattered Clouds
3:53 PM 93.9 °F - 46.9 °F 20% 29.92 in 10.0 mi Variable 5.8 mph - N/A   Mostly Cloudy
4:53 PM 93.9 °F - 45.0 °F 18% 29.91 in 10.0 mi WNW 8.1 mph - N/A   Mostly Cloudy
5:53 PM 93.9 °F - 44.1 °F 18% 29.90 in 10.0 mi North 5.8 mph - N/A   Scattered Clouds
6:53 PM 93.0 °F - 44.1 °F 18% 29.89 in 10.0 mi North 4.6 mph - N/A   Scattered Clouds
7:53 PM 89.1 °F - 45.0 °F 22% 29.90 in 10.0 mi NNE 4.6 mph - N/A   Scattered Clouds
8:53 PM 86.0 °F - 46.0 °F 25% 29.91 in 10.0 mi Calm Calm - N/A   Mostly Cloudy
9:53 PM 82.9 °F - 46.9 °F 28% 29.92 in 10.0 mi Calm Calm - N/A   Mostly Cloudy
10:53 PM 78.1 °F - 48.9 °F 36% 29.92 in 10.0 mi Calm Calm - N/A   Mostly Cloudy
11:53 PM 73.0 °F - 48.9 °F 42% 29.92 in 10.0 mi NNE 4.6 mph - N/A   Mostly Cloudy